Tracking 29059 objects as of 17-Jun-2024
HD Live streaming from Space Station
objects crossing your sky now

COSMOS 2556

Track COSMOS 2556 now!
10-day predictions


NORAD ID: 52713
Int'l Code: 2022-054A
Perigee: 492.4 km
Apogee: 512.2 km
Inclination: 97.6 °
Period: 94.5 minutes
Semi major axis: 6873 km
RCS: Unknown
Launch date: May 19, 2022
Source: Commonwealth of Independent States (former USSR) (CIS)
Launch site: PLESETSK MISSILE AND SPACE COMPLEX (PKMTR)
Your satellite tracking list
Your tracking list is empty




NASA's NSSDC Master Catalog

Two Line Element Set (TLE):
1 52713U 22054A   24168.56439471  .00006205  00000-0  26204-3 0  9991
2 52713  97.5642  96.9030 0014346 204.8152 155.2396 15.23542546115375
Source of the keplerian elements: AFSPC